Вернуться в каталог

FENGYUN 1C DEB

АктивенSSO
NORAD 30105·DEBRIS·🇨🇳 China

Запущен May 10, 1999 с Taiyuan Satellite Launch Center

Loading…

Ближайшие Пролёты (ближайшие 24 часа)

TLE

СвежийSource: Space-Track

Эпоха: Sep 14, 2026, 09:54 UTC

1 30105U 99025RJ  26257.41279538  .00000660  00000-0  26281-3 0  9999
2 30105  98.6196 241.8973 0197748 354.9098   5.0067 14.21864326 16785

Отслеживайте FENGYUN 1C DEB в реальном времени с AllMySat

Download on the App Store